[[{"header":{"parameterUnit":"m.s-1","parameterCategory":1,"la1":30.2991,"la2":30.254,"lo1":-89.0895,"lo2":-89.0444,"dy":0.0017,"dx":0.0017,"nx":28,"ny":28,"refTime":"2025-03-08T03:00:00:Z","depth":0,"parameterNumber":2,"parameterNumberName":"U-component_of_WINDS"},"data":[0,0,0,0,0,0,0,0,0,0,0,0,0,0,0,0,0,0,0,0,0,0,0,0,0,0,0,0,0,0,0,0,0,0,0,0,0,0,0,0,0,0,0,0,0,0,0,0,0,0,0,0,0,0,0,0,0,0,-1.8479,-1.848,0,-1.8548,-1.8549,-1.855,-1.8562,-1.8562,-1.8561,-1.8561,-1.8632,-1.8635,-1.8637,0,0,0,0,0,0,0,0,0,0,0,0,0,-1.836,-1.8362,-1.8479,-1.848,-1.8481,-1.8548,-1.8549,-1.855,-1.8562,-1.8562,-1.8561,-1.856,-1.8632,-1.8635,-1.8638,0,0,0,0,0,0,0,0,0,0,0,0,0,-1.8419,-1.8363,-1.8479,-1.8495,-1.8497,-1.8548,-1.8549,-1.855,-1.8562,-1.8562,-1.8561,-1.856,-1.8631,-1.8634,-1.8638,-1.8678,0,0,-1.8649,-1.8651,0,0,0,0,0,0,0,0,-1.8415,-1.8423,-1.8492,-1.8494,-1.8497,-1.8546,-1.8533,-1.8593,-1.8563,-1.8538,-1.856,-1.856,-1.8604,-1.861,-1.8625,-1.8681,-1.8684,-1.8649,-1.8652,-1.8653,-1.8654,0,0,0,0,0,0,0,-1.8411,-1.842,-1.8507,-1.8493,-1.8496,-1.85,-1.8507,-1.8545,-1.8575,-1.854,-1.8541,-1.8549,-1.8606,-1.8621,-1.8627,-1.8685,-1.8649,-1.8653,-1.8655,-1.8656,-1.8777,-1.8778,0,0,0,0,0,0,-1.8404,-1.8417,-1.8504,-1.8509,-1.8453,-1.8502,-1.8511,-1.8531,-1.8575,-1.8581,-1.855,-1.8549,-1.8616,-1.8623,-1.8629,-1.8678,-1.8653,-1.8657,-1.8659,-1.8776,-1.8778,-1.8779,0,0,0,0,0,0,-1.8402,-1.8412,-1.8502,-1.8463,-1.8475,-1.8505,-1.8528,-1.8533,-1.8549,-1.8582,-1.8588,-1.856,-1.8615,-1.8624,-1.8666,-1.8681,-1.8658,-1.8662,-1.8775,-1.8777,-1.8778,-1.8777,0,0,0,0,0,0,-1.8398,-1.8411,-1.8426,-1.8463,-1.8477,-1.8536,-1.8529,-1.8535,-1.8555,-1.8555,-1.8593,-1.8599,-1.8615,-1.866,-1.8669,-1.8686,-1.8665,-1.8774,-1.8776,-1.8778,-1.8776,-1.8778,-1.878,0,0,0,0,0,-1.8394,-1.8423,-1.8427,-1.8437,-1.8496,-1.8537,-1.8545,-1.8562,-1.8556,-1.8571,-1.8593,-1.8598,-1.8678,-1.8664,-1.8675,-1.8692,-1.8773,-1.8775,-1.8778,-1.8775,-1.8778,-1.878,0,0,0,0,0,0,-1.8387,-1.8428,-1.8433,-1.8475,-1.8502,-1.8539,-1.8559,-1.8565,-1.8595,-1.8594,-1.8616,-1.8624,-1.8664,-1.8683,-1.8666,-1.8733,-1.8725,-1.873,-1.8719,-1.8723,-1.8725,-1.8719,-1.8668,0,0,0,0,0,-1.8391,-1.842,-1.8455,-1.8489,-1.8502,-1.8528,-1.8547,-1.8558,-1.8587,-1.8599,-1.8624,-1.8653,-1.8684,-1.8705,-1.8736,-1.8779,-1.8787,-1.8797,-1.8799,-1.8801,-1.8804,-1.8828,-1.8832,-1.8786,-1.8786,-1.8786,0,0,-1.8398,-1.8424,-1.8442,-1.8488,-1.8511,-1.8541,-1.8538,-1.857,-1.8593,-1.8604,-1.8644,-1.8663,-1.8697,-1.8739,-1.8759,-1.8756,-1.8819,-1.8804,-1.8805,-1.8807,-1.883,-1.8835,-1.8839,-1.8788,-1.8788,-1.8787,0,0,-1.8427,-1.845,-1.848,-1.8503,-1.8537,-1.8554,-1.8562,-1.8598,-1.861,-1.8651,-1.866,-1.8688,-1.8742,-1.8766,-1.8785,-1.8823,-1.8828,-1.8832,-1.8844,-1.8867,-1.8871,-1.8874,-1.8887,-1.8891,-1.8836,-1.8836,-1.8836,0,-1.8432,-1.8477,-1.8496,-1.8527,-1.8547,-1.8559,-1.859,-1.8611,-1.8654,-1.8668,-1.8664,-1.8732,-1.8755,-1.8803,-1.8812,-1.8828,-1.8837,-1.8827,-1.8869,-1.8872,-1.8875,-1.8888,-1.8893,-1.8836,-1.8836,-1.8836,-1.8836,0,-1.8482,-1.8513,-1.8534,-1.8573,-1.8596,-1.8627,-1.8651,-1.8672,-1.8681,-1.8699,-1.874,-1.8769,-1.8806,-1.8818,-1.8828,-1.8867,-1.8864,-1.8864,-1.8856,-1.888,-1.8892,-1.8897,-1.8836,-1.8836,-1.8836,-1.8836,0,0,-1.8507,-1.8557,-1.8564,-1.8582,-1.8621,-1.8646,-1.8678,-1.8713,-1.873,-1.876,-1.8787,-1.8833,-1.8833,-1.8855,-1.8868,-1.8888,-1.8915,-1.8885,-1.8887,-1.8889,-1.896,-1.8958,-1.8964,-1.892,-1.8921,-1.8921,-1.8956,0,-1.854,-1.8596,-1.8614,-1.8661,-1.869,-1.8702,-1.873,-1.8757,-1.8774,-1.8802,-1.8822,-1.8854,-1.8852,-1.8865,-1.8886,-1.8907,-1.893,-1.8905,-1.8945,-1.8946,-1.8935,-1.897,-1.8969,-1.9001,-1.8961,-1.8962,-1.8963,0,-1.8585,-1.8614,-1.8664,-1.8699,-1.8712,-1.8736,-1.877,-1.8797,-1.8827,-1.8839,-1.8863,-1.8874,-1.8909,-1.89,-1.8947,-1.893,-1.8948,-1.8961,-1.8963,-1.8966,-1.8955,-1.8974,-1.9012,-1.9016,-1.8971,-1.897,-1.8969,0,-1.8598,-1.865,-1.8687,-1.8702,-1.8743,-1.876,-1.8778,-1.8808,-1.8829,-1.8859,-1.8872,-1.8906,-1.8924,-1.8951,-1.8971,-1.8963,-1.9016,-1.9009,-1.9027,-1.9026,-1.9037,-1.9036,-1.9077,-1.905,-1.905,-1.9049,-1.9049,0,-1.8632,-1.8662,-1.8693,-1.8715,-1.8749,-1.8769,-1.8802,-1.8821,-1.8848,-1.8875,-1.8888,-1.8912,-1.8938,-1.8966,-1.8983,-1.9019,-1.9028,-1.9038,-1.9042,-1.9036,-1.9035,-1.9047,-1.9045,-1.9051,-1.9051,-1.905,-1.905,0,-1.8652,-1.8673,-1.8714,-1.8749,-1.8759,-1.8783,-1.8813,-1.8836,-1.8854,-1.8888,-1.8897,-1.8926,-1.896,-1.8983,-1.9027,-1.9038,-1.9077,-1.9081,-1.9066,-1.9068,-1.9084,-1.9081,-1.9133,-1.9141,-1.911,-1.911,-1.911,0,-1.8671,-1.8695,-1.8733,-1.8751,-1.8769,-1.8798,-1.8819,-1.884,-1.8861,-1.8898,-1.8916,-1.895,-1.8979,-1.9033,-1.9058,-1.9092,-1.9096,-1.9112,-1.9101,-1.9095,-1.9096,-1.9093,-1.9096,-1.9114,-1.9114,-1.9114,-1.9114,0,-1.8704,-1.8713,-1.8742,-1.8774,-1.8798,-1.8825,-1.8852,-1.8866,-1.8892,-1.8915,-1.895,-1.8972,-1.9016,-1.9051,-1.9087,-1.9106,-1.9115,-1.9117,-1.9123,-1.9117,-1.9107,-1.9112,-1.907,-1.9116,-1.9116,-1.9116,-1.9116,-1.9115,-1.8724,-1.8745,-1.8774,-1.8806,-1.8828,-1.8853,-1.8875,-1.8896,-1.8925,-1.8962,-1.8973,-1.9009,-1.904,-1.9089,-1.9109,-1.9138,-1.9136,-1.9145,-1.9147,-1.9148,-1.9148,-1.9103,-1.9144,-1.9144,-1.9144,-1.9144,-1.9144,0,-1.8756,-1.8776,-1.8804,-1.8841,-1.8866,-1.8871,-1.8901,-1.8922,-1.8953,-1.898,-1.9008,-1.9048,-1.9081,-1.9109,-1.9144,-1.9161,-1.9166,-1.917,-1.9168,-1.9172,-1.9147,-1.9138,-1.9165,-1.9165,-1.9165,-1.9165,-1.9165,-1.9165,-1.8776,-1.8811,-1.8824,-1.8871,-1.8891,-1.8925,-1.8942,-1.8965,-1.8987,-1.903,-1.9057,-1.9075,-1.9103,-1.914,-1.9171,-1.9178,-1.919,-1.9193,-1.9201,-1.9177,-1.9174,-1.9172,-1.9164,-1.9195,-1.9195,-1.9223,-1.9224,-1.9224]},{"header":{"parameterUnit":"m.s-1","parameterCategory":1,"la1":30.2991,"la2":30.254,"lo1":-89.0895,"lo2":-89.0444,"dy":0.0017,"dx":0.0017,"nx":28,"ny":28,"refTime":"2025-03-08T03:00:00:Z","depth":0,"parameterNumber":3,"parameterNumberName":"V-component_of_WINDS"},"data":[0,0,0,0,0,0,0,0,0,0,0,0,0,0,0,0,0,0,0,0,0,0,0,0,0,0,0,0,0,0,0,0,0,0,0,0,0,0,0,0,0,0,0,0,0,0,0,0,0,0,0,0,0,0,0,0,0,0,3.3654,3.3655,0,3.3728,3.3729,3.373,3.3733,3.3733,3.3732,3.3731,3.3806,3.3808,3.3811,0,0,0,0,0,0,0,0,0,0,0,0,0,3.3516,3.3519,3.3654,3.3655,3.3656,3.3728,3.3729,3.373,3.3734,3.3733,3.3732,3.3731,3.3805,3.3808,3.3811,0,0,0,0,0,0,0,0,0,0,0,0,0,3.3582,3.3519,3.3654,3.3666,3.3668,3.3728,3.3729,3.373,3.3734,3.3733,3.3731,3.373,3.3804,3.3808,3.3812,3.3864,0,0,3.3825,3.3826,0,0,0,0,0,0,0,0,3.3578,3.3587,3.3664,3.3666,3.3668,3.372,3.3708,3.3775,3.3734,3.3709,3.3731,3.3729,3.3778,3.3784,3.3801,3.3867,3.387,3.3825,3.3827,3.3829,3.383,0,0,0,0,0,0,0,3.3573,3.3584,3.3683,3.3665,3.3667,3.3669,3.3676,3.3721,3.375,3.3711,3.3711,3.372,3.3779,3.3797,3.3803,3.3871,3.3825,3.3829,3.3831,3.3833,3.3986,3.3988,0,0,0,0,0,0,3.3566,3.358,3.3681,3.3686,3.3619,3.3672,3.3681,3.3705,3.3749,3.3755,3.3721,3.372,3.3791,3.3798,3.3805,3.3871,3.3829,3.3833,3.3836,3.3985,3.3987,3.3988,0,0,0,0,0,0,3.3563,3.3575,3.3678,3.3633,3.3646,3.3676,3.3703,3.3707,3.3725,3.3757,3.3762,3.3734,3.379,3.38,3.385,3.3874,3.3835,3.3839,3.3983,3.3985,3.3987,3.4001,0,0,0,0,0,0,3.3559,3.3574,3.3594,3.3633,3.3648,3.3721,3.3704,3.3709,3.3732,3.3732,3.3771,3.3776,3.379,3.3844,3.3854,3.3879,3.3842,3.3981,3.3984,3.3987,3.3999,3.4004,3.4008,0,0,0,0,0,3.3555,3.3594,3.3595,3.3607,3.3674,3.3722,3.3731,3.3746,3.3734,3.3755,3.3776,3.3775,3.3869,3.3849,3.386,3.3887,3.3979,3.3983,3.3986,3.3997,3.4003,3.4008,0,0,0,0,0,0,3.3556,3.36,3.3601,3.3655,3.3685,3.3723,3.3749,3.3752,3.3786,3.3784,3.38,3.3809,3.386,3.3878,3.3854,3.394,3.3923,3.3929,3.3927,3.3933,3.3937,3.3932,3.3846,0,0,0,0,0,3.3563,3.3599,3.3635,3.3679,3.3694,3.3719,3.3741,3.375,3.3782,3.3794,3.3819,3.385,3.3887,3.3911,3.3946,3.4001,3.4011,3.4025,3.403,3.4033,3.4039,3.4072,3.4079,3.4,3.4,3.4,0,0,3.3577,3.3605,3.3627,3.368,3.3704,3.3742,3.373,3.3769,3.3797,3.38,3.385,3.3869,3.3905,3.3958,3.3983,3.3975,3.4063,3.4038,3.4041,3.4044,3.4076,3.4083,3.409,3.4002,3.4002,3.4001,0,0,3.3622,3.3646,3.3687,3.3712,3.375,3.3767,3.3776,3.3815,3.3828,3.3878,3.3882,3.3915,3.3978,3.4004,3.4025,3.4082,3.4083,3.4093,3.4117,3.4149,3.4155,3.4161,3.4183,3.4191,3.4098,3.4098,3.4098,0,3.3635,3.3691,3.3707,3.3747,3.3771,3.3777,3.3818,3.3842,3.3889,3.3906,3.3896,3.3977,3.4001,3.4061,3.4076,3.4092,3.4105,3.4089,3.4153,3.4159,3.4165,3.4186,3.4194,3.4099,3.4099,3.4099,3.4099,0,3.3706,3.3745,3.3773,3.382,3.3847,3.3887,3.391,3.3935,3.3943,3.3961,3.4013,3.4042,3.4085,3.4099,3.4106,3.4162,3.4156,3.415,3.4133,3.4173,3.4194,3.4202,3.4101,3.41,3.41,3.41,0,0,3.3754,3.381,3.382,3.3843,3.3885,3.3916,3.3957,3.4,3.4022,3.4055,3.4091,3.4145,3.414,3.4164,3.4174,3.4202,3.4248,3.4192,3.4193,3.4203,3.4313,3.4319,3.4328,3.4248,3.425,3.4251,3.4311,0,3.3805,3.3879,3.3895,3.3959,3.3997,3.4003,3.404,3.407,3.4089,3.4123,3.4143,3.4182,3.4171,3.4186,3.4214,3.4236,3.427,3.4232,3.4283,3.4284,3.4275,3.4338,3.4344,3.4398,3.4318,3.432,3.4321,0,3.3874,3.391,3.3978,3.4018,3.4035,3.4067,3.4109,3.4141,3.4176,3.4188,3.4216,3.4223,3.4268,3.4248,3.431,3.4283,3.4305,3.4319,3.4322,3.4328,3.4306,3.4348,3.4416,3.4425,3.4333,3.4332,3.4331,0,3.3904,3.3969,3.4019,3.4038,3.4085,3.4108,3.4129,3.4163,3.4188,3.4224,3.4241,3.4282,3.4304,3.4335,3.4354,3.4337,3.4415,3.4396,3.4427,3.4426,3.4443,3.4442,3.4518,3.4455,3.4455,3.4455,3.4454,0,3.3961,3.4003,3.4034,3.4065,3.4113,3.4131,3.4178,3.4198,3.4229,3.4265,3.4272,3.4305,3.4327,3.4363,3.4378,3.4428,3.4437,3.4449,3.4452,3.4449,3.4448,3.4464,3.4461,3.4457,3.4456,3.4456,3.4455,0,3.4003,3.4025,3.4081,3.4121,3.4133,3.4166,3.4202,3.4232,3.4251,3.4296,3.4307,3.4337,3.438,3.4402,3.4455,3.4465,3.4523,3.4523,3.4511,3.4513,3.4543,3.454,3.4633,3.4646,3.4573,3.4573,3.4574,0,3.4038,3.407,3.4115,3.414,3.4162,3.4201,3.4227,3.4247,3.4274,3.4318,3.4344,3.4388,3.4424,3.4493,3.452,3.4561,3.4564,3.4593,3.457,3.4566,3.4566,3.4565,3.4569,3.4598,3.4598,3.4599,3.4599,0,3.4098,3.4108,3.4146,3.4188,3.422,3.4254,3.4287,3.4307,3.4332,3.4363,3.4408,3.4436,3.4492,3.4536,3.458,3.4601,3.4605,3.4607,3.4616,3.4614,3.4606,3.4613,3.4524,3.4604,3.4604,3.4604,3.4603,3.4603,3.4139,3.4169,3.4206,3.4249,3.4276,3.4308,3.434,3.4363,3.4401,3.4449,3.4458,3.4506,3.4542,3.4602,3.4625,3.4663,3.4657,3.467,3.4674,3.4677,3.468,3.4599,3.4671,3.4671,3.4671,3.4671,3.4671,0,3.4202,3.4226,3.4265,3.4312,3.4346,3.4347,3.4385,3.4413,3.4456,3.4489,3.4526,3.4578,3.4622,3.4652,3.4696,3.4721,3.4724,3.4732,3.4731,3.4737,3.4682,3.467,3.4729,3.4729,3.4729,3.4729,3.4729,3.4729,3.4238,3.429,3.4305,3.4371,3.4395,3.4443,3.4465,3.4495,3.4522,3.4581,3.4617,3.4637,3.467,3.4717,3.4757,3.4765,3.4782,3.479,3.4798,3.4746,3.474,3.4734,3.4724,3.4793,3.4793,3.485,3.4851,3.4851]}]]